Voltar ao catálogo

COSMOS 2251 DEB

AtivoLEO
NORAD 34910·DEBRIS·🇷🇺 Russia

Lançado Jun 16, 1993 de Plesetsk Cosmodrome

Loading…

Próximas Passagens (próximas 24 horas)

TLE

AtualizadoSource: Space-Track

Época: Sep 13, 2026, 08:22 UTC

1 34910U 93036ADF 26256.34922152  .00000186  00000-0  20576-3 0  9995
2 34910  73.8756  27.9014 0466058  99.7412 294.1613 13.38028262851970

Acompanhe COSMOS 2251 DEB em tempo real com AllMySat

Download on the App Store